カタログに戻る

ARGUS-312

運用中軍事SSO
NORAD 67276·PAYLOAD·🇷🇺 Russia
この衛星名は、まだ公式ソースで確認されていません。

打ち上げ Dec 28, 2025 から Vostochny Cosmodrome

Loading…

次のパス (今後24時間)

TLE

最新Source: Space-Track

元期: Sep 13, 2026, 18:40 UTC

1 67276U 25313AE  26256.77780678  .00004554  00000-0  19267-3 0  9999
2 67276  97.3834 329.8970 0014721  59.9523 300.3172 15.23606795 39439

AllMySatでARGUS-312をリアルタイム追跡

Download on the App Store